[[{"header":{"parameterUnit":"m.s-1","parameterCategory":1,"la1":30.2991,"la2":30.254,"lo1":-89.0895,"lo2":-89.0444,"dy":0.0017,"dx":0.0017,"nx":28,"ny":28,"refTime":"2024-12-22T09:00:00:Z","depth":0,"parameterNumber":2,"parameterNumberName":"U-component_of_WINDS"},"data":[0,0,0,0,0,0,0,0,0,0,0,0,0,0,0,0,0,0,0,0,0,0,0,0,0,0,0,0,0,0,0,0,0,0,0,0,0,0,0,0,0,0,0,0,0,0,0,0,0,0,0,0,0,0,0,0,0,0,-4.5247,-4.5248,0,-4.5301,-4.5302,-4.5302,-4.5168,-4.5164,-4.5159,-4.5155,-4.5209,-4.5214,-4.522,0,0,0,0,0,0,0,0,0,0,0,0,0,-4.5027,-4.5031,-4.5247,-4.5248,-4.5249,-4.5301,-4.5302,-4.5302,-4.5169,-4.5163,-4.5158,-4.5153,-4.5207,-4.5214,-4.522,0,0,0,0,0,0,0,0,0,0,0,0,0,-4.5106,-4.5033,-4.5247,-4.5188,-4.5183,-4.5301,-4.5302,-4.5303,-4.517,-4.5163,-4.5157,-4.5151,-4.5205,-4.5213,-4.5221,-4.5398,0,0,-4.5246,-4.5249,0,0,0,0,0,0,0,0,-4.5101,-4.5114,-4.5196,-4.5192,-4.5187,-4.5221,-4.5243,-4.5334,-4.5171,-4.5175,-4.5155,-4.5148,-4.5218,-4.5225,-4.5249,-4.54,-4.5403,-4.5246,-4.5251,-4.5255,-4.5257,0,0,0,0,0,0,0,-4.5096,-4.5111,-4.5268,-4.5198,-4.5192,-4.5158,-4.5162,-4.526,-4.5231,-4.5174,-4.5164,-4.5173,-4.5215,-4.5241,-4.5249,-4.5403,-4.5246,-4.5253,-4.5258,-4.5262,-4.57,-4.5706,0,0,0,0,0,0,-4.5098,-4.5107,-4.5267,-4.527,-4.5128,-4.5167,-4.5172,-4.5217,-4.523,-4.5226,-4.5178,-4.5166,-4.5231,-4.524,-4.525,-4.5456,-4.5255,-4.5262,-4.5267,-4.5693,-4.5701,-4.5709,0,0,0,0,0,0,-4.5094,-4.5114,-4.5265,-4.5186,-4.5203,-4.5178,-4.5229,-4.5221,-4.5248,-4.5233,-4.5227,-4.5211,-4.5226,-4.5239,-4.5362,-4.5456,-4.5266,-4.5273,-4.5685,-4.5696,-4.5705,-4.5871,0,0,0,0,0,0,-4.5088,-4.5113,-4.5181,-4.5189,-4.5207,-4.5376,-4.5235,-4.5227,-4.5262,-4.5247,-4.5262,-4.5259,-4.5222,-4.535,-4.537,-4.5464,-4.528,-4.5676,-4.569,-4.5702,-4.5857,-4.5886,-4.591,0,0,0,0,0,-4.5081,-4.5226,-4.5185,-4.5205,-4.5291,-4.5382,-4.5393,-4.5348,-4.527,-4.5337,-4.5328,-4.5258,-4.5443,-4.5364,-4.5385,-4.5483,-4.567,-4.5686,-4.5701,-4.5845,-4.588,-4.591,0,0,0,0,0,0,-4.523,-4.5226,-4.518,-4.5332,-4.5358,-4.5359,-4.5442,-4.5387,-4.5436,-4.5419,-4.5362,-4.5366,-4.5499,-4.5503,-4.5415,-4.5653,-4.5543,-4.5564,-4.5646,-4.5679,-4.5705,-4.5701,-4.5286,0,0,0,0,0,-4.528,-4.5355,-4.5347,-4.5481,-4.5497,-4.5468,-4.5506,-4.5469,-4.5494,-4.5504,-4.5503,-4.553,-4.5593,-4.5636,-4.5694,-4.5857,-4.5857,-4.5935,-4.5961,-4.5983,-4.6001,-4.6086,-4.6119,-4.5759,-4.5759,-4.5759,0,0,-4.5385,-4.5392,-4.5442,-4.5511,-4.5527,-4.5605,-4.5478,-4.5566,-4.5622,-4.5517,-4.5632,-4.5633,-4.5658,-4.5801,-4.5864,-4.5809,-4.6101,-4.6003,-4.6021,-4.6026,-4.6105,-4.6139,-4.617,-4.5769,-4.5768,-4.5766,0,0,-4.5615,-4.5629,-4.5741,-4.576,-4.5786,-4.5765,-4.5793,-4.5802,-4.5798,-4.5913,-4.5835,-4.5901,-4.6013,-4.6033,-4.6059,-4.6296,-4.6233,-4.6316,-4.6455,-4.6538,-4.6567,-4.6592,-4.6675,-4.6705,-4.6334,-4.6335,-4.6335,0,-4.5742,-4.5856,-4.5806,-4.5899,-4.5931,-4.5839,-4.5952,-4.5973,-4.6016,-4.604,-4.5977,-4.6114,-4.6125,-4.6271,-4.6328,-4.6352,-4.638,-4.6314,-4.6567,-4.6591,-4.6614,-4.6692,-4.6724,-4.6345,-4.6344,-4.6343,-4.6342,0,-4.601,-4.6091,-4.6178,-4.6223,-4.6264,-4.6367,-4.6332,-4.638,-4.6339,-4.6325,-4.6443,-4.6452,-4.651,-4.6542,-4.6503,-4.6682,-4.6646,-4.6577,-4.6464,-4.6659,-4.6732,-4.6761,-4.6359,-4.6355,-4.6352,-4.635,0,0,-4.6336,-4.6351,-4.6384,-4.6402,-4.6423,-4.6484,-4.6582,-4.6638,-4.668,-4.6713,-4.6792,-4.6888,-4.6823,-4.6852,-4.6815,-4.6888,-4.7073,-4.6808,-4.6808,-4.6856,-4.7269,-4.732,-4.7356,-4.7032,-4.7038,-4.7042,-4.7266,0,-4.6562,-4.673,-4.6688,-4.6854,-4.6927,-4.684,-4.6925,-4.6947,-4.6937,-4.6996,-4.6983,-4.7052,-4.6962,-4.6978,-4.7047,-4.7036,-4.7155,-4.702,-4.7104,-4.7108,-4.71,-4.7394,-4.745,-4.7661,-4.7294,-4.7299,-4.7303,0,-4.6849,-4.6893,-4.7067,-4.7075,-4.7103,-4.7181,-4.7228,-4.7286,-4.7309,-4.7295,-4.7328,-4.7275,-4.737,-4.7259,-4.7388,-4.7297,-4.7329,-4.7329,-4.7336,-4.7341,-4.7216,-4.7406,-4.7727,-4.7758,-4.7347,-4.7344,-4.734,0,-4.7067,-4.717,-4.7286,-4.7305,-4.7318,-4.7374,-4.7381,-4.7397,-4.7434,-4.7475,-4.7497,-4.755,-4.7578,-4.7619,-4.7582,-4.7504,-4.7716,-4.7602,-4.7707,-4.7708,-4.7755,-4.7752,-4.8084,-4.7778,-4.7778,-4.7777,-4.7776,0,-4.7323,-4.7433,-4.7384,-4.7456,-4.7576,-4.7525,-4.7645,-4.7642,-4.7657,-4.7726,-4.7655,-4.7721,-4.7668,-4.773,-4.7701,-4.7812,-4.7825,-4.7817,-4.7807,-4.7822,-4.7823,-4.7842,-4.7826,-4.7785,-4.7784,-4.7782,-4.7781,0,-4.7587,-4.7559,-4.7681,-4.7683,-4.7685,-4.7774,-4.7774,-4.784,-4.7824,-4.7912,-4.793,-4.7905,-4.7973,-4.794,-4.8011,-4.7992,-4.8134,-4.8106,-4.8127,-4.8119,-4.8225,-4.8216,-4.858,-4.8624,-4.8291,-4.8294,-4.8297,0,-4.7752,-4.7834,-4.7845,-4.7886,-4.7899,-4.7966,-4.8002,-4.7956,-4.7996,-4.8027,-4.8089,-4.8151,-4.8198,-4.8311,-4.8299,-4.8352,-4.8324,-4.8448,-4.8331,-4.8343,-4.8324,-4.8319,-4.8326,-4.8471,-4.8475,-4.8478,-4.8481,0,-4.8047,-4.8029,-4.8084,-4.8135,-4.8181,-4.8218,-4.825,-4.8287,-4.8241,-4.829,-4.8359,-4.8396,-4.8468,-4.853,-4.8577,-4.8583,-4.8525,-4.8517,-4.8544,-4.856,-4.8568,-4.8563,-4.8189,-4.8509,-4.8506,-4.8504,-4.8503,-4.8501,-4.8265,-4.8334,-4.8352,-4.8415,-4.8434,-4.8465,-4.8526,-4.8518,-4.8574,-4.863,-4.8598,-4.8679,-4.8697,-4.8754,-4.8768,-4.883,-4.878,-4.882,-4.8829,-4.884,-4.8853,-4.8559,-4.8838,-4.8837,-4.8836,-4.8836,-4.8835,0,-4.8555,-4.8562,-4.8622,-4.8668,-4.8718,-4.8658,-4.8689,-4.8735,-4.8806,-4.8829,-4.8877,-4.8955,-4.9015,-4.9007,-4.9061,-4.9111,-4.9086,-4.9127,-4.9122,-4.9124,-4.8895,-4.8866,-4.9147,-4.9147,-4.9147,-4.9147,-4.9147,-4.9147,-4.8712,-4.8824,-4.8808,-4.8928,-4.8934,-4.9012,-4.9035,-4.9062,-4.908,-4.9171,-4.922,-4.9214,-4.9224,-4.9278,-4.933,-4.9326,-4.9348,-4.94,-4.9386,-4.9171,-4.9141,-4.9111,-4.9083,-4.9405,-4.9406,-4.9609,-4.9611,-4.9613]},{"header":{"parameterUnit":"m.s-1","parameterCategory":1,"la1":30.2991,"la2":30.254,"lo1":-89.0895,"lo2":-89.0444,"dy":0.0017,"dx":0.0017,"nx":28,"ny":28,"refTime":"2024-12-22T09:00:00:Z","depth":0,"parameterNumber":3,"parameterNumberName":"V-component_of_WINDS"},"data":[0,0,0,0,0,0,0,0,0,0,0,0,0,0,0,0,0,0,0,0,0,0,0,0,0,0,0,0,0,0,0,0,0,0,0,0,0,0,0,0,0,0,0,0,0,0,0,0,0,0,0,0,0,0,0,0,0,0,-1.0798,-1.0797,0,-1.0785,-1.0785,-1.0785,-1.0778,-1.0778,-1.0778,-1.0778,-1.0766,-1.0766,-1.0765,0,0,0,0,0,0,0,0,0,0,0,0,0,-1.0816,-1.0815,-1.0798,-1.0797,-1.0797,-1.0785,-1.0785,-1.0785,-1.0778,-1.0778,-1.0778,-1.0778,-1.0766,-1.0766,-1.0765,0,0,0,0,0,0,0,0,0,0,0,0,0,-1.0806,-1.0815,-1.0798,-1.0792,-1.0792,-1.0785,-1.0785,-1.0785,-1.0778,-1.0778,-1.0778,-1.0778,-1.0766,-1.0766,-1.0765,-1.0763,0,0,-1.0764,-1.0764,0,0,0,0,0,0,0,0,-1.0807,-1.0805,-1.0793,-1.0793,-1.0792,-1.0783,-1.0787,-1.0778,-1.0778,-1.0783,-1.0778,-1.0778,-1.0772,-1.0771,-1.0769,-1.0763,-1.0762,-1.0764,-1.0764,-1.0763,-1.0763,0,0,0,0,0,0,0,-1.0807,-1.0806,-1.0793,-1.0793,-1.0792,-1.0791,-1.0789,-1.0785,-1.0778,-1.0783,-1.0782,-1.0781,-1.0771,-1.0769,-1.0768,-1.0762,-1.0764,-1.0764,-1.0763,-1.0763,-1.0752,-1.0752,0,0,0,0,0,0,-1.0809,-1.0806,-1.0793,-1.0792,-1.0799,-1.079,-1.0789,-1.0786,-1.0778,-1.0777,-1.0781,-1.0781,-1.077,-1.0769,-1.0768,-1.0764,-1.0763,-1.0763,-1.0763,-1.0752,-1.0752,-1.0752,0,0,0,0,0,0,-1.0809,-1.0808,-1.0794,-1.0799,-1.0797,-1.079,-1.0787,-1.0786,-1.0783,-1.0776,-1.0775,-1.078,-1.077,-1.0768,-1.0764,-1.0764,-1.0763,-1.0762,-1.0752,-1.0752,-1.0752,-1.0757,0,0,0,0,0,0,-1.081,-1.0808,-1.0807,-1.0799,-1.0797,-1.079,-1.0787,-1.0786,-1.0783,-1.0782,-1.0775,-1.0774,-1.077,-1.0765,-1.0764,-1.0763,-1.0762,-1.0752,-1.0752,-1.0752,-1.0757,-1.0757,-1.0757,0,0,0,0,0,-1.081,-1.0809,-1.0807,-1.0805,-1.0796,-1.079,-1.0789,-1.0784,-1.0783,-1.0782,-1.0777,-1.0774,-1.0764,-1.0764,-1.0763,-1.0762,-1.0752,-1.0752,-1.0752,-1.0757,-1.0757,-1.0757,0,0,0,0,0,0,-1.0817,-1.0808,-1.0805,-1.0802,-1.0797,-1.0789,-1.0788,-1.0784,-1.078,-1.078,-1.0774,-1.0772,-1.0768,-1.0765,-1.0766,-1.0759,-1.0758,-1.0757,-1.0761,-1.0762,-1.0762,-1.0763,-1.0762,0,0,0,0,0,-1.0818,-1.0814,-1.0806,-1.0804,-1.0801,-1.0795,-1.0792,-1.0789,-1.0783,-1.0781,-1.0776,-1.0771,-1.0767,-1.0764,-1.076,-1.0756,-1.0754,-1.0755,-1.0755,-1.0755,-1.0755,-1.0752,-1.0752,-1.0752,-1.0752,-1.0752,0,0,-1.082,-1.0815,-1.0813,-1.0805,-1.0801,-1.0797,-1.0793,-1.0789,-1.0786,-1.0781,-1.0776,-1.0772,-1.0766,-1.0762,-1.076,-1.0759,-1.0755,-1.0755,-1.0755,-1.0755,-1.0752,-1.0752,-1.0752,-1.0752,-1.0752,-1.0752,0,0,-1.0822,-1.0818,-1.0815,-1.081,-1.0804,-1.0799,-1.0798,-1.0791,-1.0788,-1.0783,-1.0779,-1.0775,-1.0767,-1.0763,-1.076,-1.0759,-1.0756,-1.0758,-1.0759,-1.0756,-1.0756,-1.0756,-1.0756,-1.0756,-1.0758,-1.0758,-1.0758,0,-1.0826,-1.0819,-1.0814,-1.081,-1.0806,-1.08,-1.0797,-1.0793,-1.0786,-1.0783,-1.0782,-1.0772,-1.0768,-1.0762,-1.0762,-1.076,-1.0758,-1.0759,-1.0757,-1.0757,-1.0757,-1.0756,-1.0756,-1.0758,-1.0758,-1.0758,-1.0758,0,-1.0824,-1.082,-1.0818,-1.081,-1.0806,-1.0803,-1.0796,-1.0793,-1.079,-1.0785,-1.078,-1.0774,-1.0768,-1.0767,-1.0764,-1.076,-1.076,-1.0758,-1.0757,-1.0757,-1.0756,-1.0756,-1.0758,-1.0758,-1.0758,-1.0758,0,0,-1.083,-1.0819,-1.0818,-1.0814,-1.0806,-1.0802,-1.0798,-1.0792,-1.0789,-1.0784,-1.078,-1.0773,-1.0771,-1.0768,-1.0764,-1.0762,-1.076,-1.076,-1.076,-1.076,-1.0756,-1.0757,-1.0757,-1.0758,-1.0758,-1.0758,-1.0756,0,-1.0831,-1.0823,-1.0817,-1.0811,-1.0807,-1.0801,-1.0797,-1.0792,-1.0787,-1.0783,-1.0778,-1.0773,-1.0771,-1.0769,-1.0766,-1.0761,-1.076,-1.0761,-1.0755,-1.0755,-1.0756,-1.0757,-1.0758,-1.0757,-1.0756,-1.0756,-1.0756,0,-1.083,-1.0824,-1.0818,-1.081,-1.0808,-1.0804,-1.0798,-1.0793,-1.0787,-1.0784,-1.0779,-1.0775,-1.077,-1.0769,-1.0762,-1.0763,-1.076,-1.0757,-1.0757,-1.0756,-1.0755,-1.0756,-1.0756,-1.0756,-1.0755,-1.0755,-1.0756,0,-1.0835,-1.0826,-1.082,-1.0817,-1.0807,-1.0805,-1.0801,-1.0794,-1.079,-1.0785,-1.0782,-1.0776,-1.0773,-1.0768,-1.0762,-1.0762,-1.0756,-1.0754,-1.0753,-1.0753,-1.0752,-1.0752,-1.0752,-1.075,-1.075,-1.075,-1.075,0,-1.0836,-1.0832,-1.0822,-1.0819,-1.0815,-1.0808,-1.0804,-1.0799,-1.0793,-1.0789,-1.0783,-1.0779,-1.0772,-1.0767,-1.0763,-1.0757,-1.0756,-1.0753,-1.0752,-1.0754,-1.0754,-1.0752,-1.0752,-1.075,-1.075,-1.075,-1.075,0,-1.084,-1.0834,-1.0828,-1.0818,-1.0816,-1.0813,-1.0805,-1.0802,-1.0797,-1.0791,-1.0789,-1.0782,-1.0776,-1.0769,-1.0761,-1.0758,-1.0753,-1.0751,-1.0755,-1.0754,-1.0753,-1.0753,-1.0751,-1.075,-1.075,-1.075,-1.075,0,-1.0841,-1.0838,-1.0828,-1.0825,-1.0821,-1.0815,-1.0811,-1.0804,-1.08,-1.0792,-1.079,-1.0783,-1.0777,-1.0768,-1.0762,-1.0755,-1.0753,-1.0753,-1.0752,-1.0754,-1.0753,-1.0753,-1.0753,-1.0753,-1.0753,-1.0753,-1.0753,0,-1.0844,-1.084,-1.0834,-1.0827,-1.0823,-1.0817,-1.0811,-1.0808,-1.08,-1.0796,-1.0789,-1.0785,-1.0776,-1.077,-1.0762,-1.0758,-1.0754,-1.0754,-1.0753,-1.0754,-1.0756,-1.0755,-1.0755,-1.0754,-1.0754,-1.0754,-1.0754,-1.0754,-1.0846,-1.0843,-1.0835,-1.0829,-1.0823,-1.0818,-1.0814,-1.0808,-1.0802,-1.0794,-1.0791,-1.0784,-1.0777,-1.0766,-1.0762,-1.0757,-1.0756,-1.0755,-1.0755,-1.0754,-1.0755,-1.0757,-1.0755,-1.0755,-1.0755,-1.0755,-1.0755,0,-1.0848,-1.0842,-1.0836,-1.0828,-1.0823,-1.0819,-1.0812,-1.0808,-1.0802,-1.0796,-1.079,-1.0782,-1.0776,-1.0768,-1.0761,-1.0758,-1.0756,-1.0757,-1.0757,-1.0756,-1.0756,-1.0757,-1.0758,-1.0758,-1.0758,-1.0758,-1.0758,-1.0758,-1.0848,-1.0842,-1.0838,-1.0829,-1.0823,-1.0816,-1.0813,-1.0807,-1.0802,-1.0793,-1.0787,-1.0783,-1.0776,-1.0768,-1.0762,-1.076,-1.0757,-1.0758,-1.0756,-1.0756,-1.0756,-1.0756,-1.0757,-1.0758,-1.0758,-1.0756,-1.0756,-1.0756]}]]